This is the latest recevied weather packets stored in our database for station/object KE8RXN. If no packets are shown the sender has not sent any weather packets the latest 10 day(s).
| Time | Temp. | Humidity | Pressure | Rain* | Wind** | Luminosity | Snow |
|---|---|---|---|---|---|---|---|
| 1777681507 | 5° C | 56% | 1020.7 hPa | 0 mm | - | 7 W/m² | - |
| 1777681205 | 5° C | 56% | 1020.7 hPa | 0 mm | - | 9 W/m² | - |
| 1777680902 | 5° C | 56% | 1020.5 hPa | 0 mm | - | 11 W/m² | - |
| 1777680599 | 5.56° C | 55% | 1020.4 hPa | 0 mm | - | 15 W/m² | - |
| 1777680298 | 5.56° C | 56% | 1020.3 hPa | 0 mm | - | 14 W/m² | - |
| 1777679994 | 5.56° C | 55% | 1020.3 hPa | 0 mm | - | 12 W/m² | - |
| 1777679689 | 5.56° C | 53% | 1020.3 hPa | 0 mm | - | 10 W/m² | - |
| 1777679385 | 6.11° C | 52% | 1020.3 hPa | 0 mm | - | 10 W/m² | - |
| 1777679081 | 6.11° C | 51% | 1019.9 hPa | 0 mm | - | 10 W/m² | - |
| 1777678780 | 6.67° C | 51% | 1020 hPa | 0 mm | - | 12 W/m² | - |
| 1777678478 | 6.67° C | 56% | 1020.1 hPa | 0 mm | - | 16 W/m² | - |
| 1777678173 | 6.67° C | 55% | 1019.9 hPa | 0 mm | - | 24 W/m² | - |
| 1777677870 | 6.67° C | 54% | 1019.9 hPa | 0 mm | - | 33 W/m² | - |
| 1777677567 | 6.67° C | 53% | 1019.8 hPa | 0 mm | - | 39 W/m² | - |
| 1777677266 | 6.67° C | 53% | 1019.9 hPa | 0 mm | - | 40 W/m² | - |
| 1777676964 | 6.67° C | 52% | 1019.7 hPa | 0 mm | - | 36 W/m² | - |
| 1777676662 | 6.67° C | 51% | 1019.8 hPa | 0 mm | - | 32 W/m² | - |
| 1777676360 | 6.67° C | 53% | 1019.7 hPa | 0 mm | - | 32 W/m² | - |
| 1777676057 | 6.67° C | 53% | 1019.7 hPa | 0 mm | - | 36 W/m² | - |
| 1777675753 | 6.67° C | 51% | 1019.8 hPa | 0 mm | - | 40 W/m² | - |
| 1777675450 | 6.67° C | 51% | 1019.5 hPa | 0 mm | - | 50 W/m² | - |
| 1777675147 | 7.22° C | 51% | 1019.7 hPa | 0 mm | - | 61 W/m² | - |
| 1777674843 | 7.22° C | 50% | 1019.7 hPa | 0 mm | - | 72 W/m² | - |
| 1777674539 | 7.22° C | 50% | 1019.8 hPa | 0 mm | - | 83 W/m² | - |
| 1777674238 | 7.22° C | 51% | 1019.6 hPa | 0 mm | - | 93 W/m² | - |
* Rain latest hour (hover to see other rain measurements)
** Current wind speed in m/s (hover to see current wind gust speed)